Location: La Bastide
(43.1661°N, 1.2755°E)
Time: 22:23:44
(UTC+00:00)

Cosmos 1354 Rocket - Pass Details

Date: 13 December 2025
Orbit: 761 x 778 km, 74.0° (Epoch: 21 January)

Event Time Altitude Azimuth Distance (km) Brightness Sun altitude
Rises 16:56:28 0° 197° (SSW) 3,232 7.9 -6.7°
Reaches altitude 10° 16:58:50 10° 196° (SSW) 2,307 7.1 -7.1°
Maximum altitude 17:04:05 85° 110° (ESE) 777 4.0 -7.9°
Drops below altitude 10° 17:09:20 10° 21° (NNE) 2,312 6.1 -8.8°
Enters shadow 17:11:30 - 21° (NNE) 3,153 6.8 -9.2°
